Weather History for Sanford, ME

Change the Weather History Date:

Monday, December 31, 2012

  Actual Average Record
Temperature  
Mean Temperature 22 °F -  
Max Temperature 33 °F 31 °F 51 °F (2010)
Min Temperature 10 °F 14 °F -5 °F (2013)
Degree Days  
Heating Degree Days 44    
Moisture  
Dew Point 19 °F    
Average Humidity 79    
Maximum Humidity 100    
Minimum Humidity 59    
Precipitation  
Precipitation 0.03 in - - ()
Sea Level Pressure  
Sea Level Pressure 29.84 in    
Wind  
Wind Speed 9 mph (WSW)    
Max Wind Speed 18 mph    
Max Gust Speed 36 mph    
Visibility 10 miles    
Events      
Averages and records for this station are not official NWS values.
T = Trace of Precipitation, MM = Missing Value Source: NWS Daily Summary

Daily Weather History Graph

Daily Weather History Graph

Search for Another Location

Airport:

Trip Planner

Search our weather history database for the weather conditions in past years. The results will help you decide how hot, cold, wet, or windy it might be!

Date:

Astronomy

Dec. 31, 2012 Rise Set
Actual Time 7:15 AM EST 4:16 PM EST
Civil Twilight 6:42 AM EST 4:49 PM EST
Nautical Twilight 6:06 AM EST 5:25 PM EST
Astronomical Twilight 5:32 AM EST 6:00 PM EST
Moon 7:50 PM EST (12/31) 8:49 AM EST (12/31)
Length of Visible Light 10h 06m
Length of Day
9h 01m
Waning Gibbous, 90% of the Moon is Illuminated
Dec 31
Waning Gibbous
Jan 4
Last Quarter
Jan 11
New
Jan 18
First Quarter
Jan 26
Full

Hourly Weather History & Observations

Time (EST) Temp. Windchill Dew Point Humidity Pressure Visibility Wind Dir Wind Speed Gust Speed Precip Events Conditions
12:15 AM 17.6 °F 7.3 °F 8.6 °F 68% 29.84 in 10.0 mi WNW 8.1 mph - N/A   Clear
1:15 AM 15.8 °F 10.2 °F 10.4 °F 79% 29.85 in 10.0 mi WNW 3.5 mph - N/A   Clear
1:35 AM 10.4 °F 2.2 °F 6.8 °F 85% 29.86 in 10.0 mi WSW 4.6 mph - N/A   Clear
1:55 AM 17.6 °F 7.3 °F 15.8 °F 93% 29.86 in 10.0 mi WNW 8.1 mph - N/A   Clear
2:15 AM 17.6 °F 5.7 °F 15.8 °F 93% 29.86 in 10.0 mi West 10.4 mph 16.1 mph N/A   Clear
2:35 AM 19.4 °F 5.0 °F 12.2 °F 74% 29.86 in 10.0 mi West 16.1 mph - N/A   Clear
2:55 AM 19.4 °F 6.6 °F 12.2 °F 74% 29.86 in 10.0 mi West 12.7 mph 18.4 mph N/A   Clear
3:15 AM 19.4 °F 7.2 °F 8.6 °F 63% 29.87 in 10.0 mi West 11.5 mph - N/A   Clear
3:35 AM 17.6 °F 5.7 °F 8.6 °F 68% 29.87 in 10.0 mi West 10.4 mph - N/A   Clear
3:55 AM 17.6 °F 5.0 °F 10.4 °F 73% 29.87 in 10.0 mi West 11.5 mph - N/A   Clear
4:15 AM 21.2 °F 9.5 °F 12.2 °F 68% 29.87 in 10.0 mi WNW 11.5 mph 16.1 mph N/A   Clear
4:35 AM 21.2 °F 10.1 °F 17.6 °F 86% 29.88 in 10.0 mi West 10.4 mph - N/A   Clear
5:15 AM 21.2 °F 12.6 °F 17.6 °F 86% 29.87 in 10.0 mi West 6.9 mph - N/A   Clear
5:35 AM 21.2 °F 13.6 °F 17.6 °F 86% 29.87 in 10.0 mi WNW 5.8 mph - N/A   Clear
5:55 AM 19.4 °F 14.3 °F 17.6 °F 93% 29.89 in 10.0 mi SW 3.5 mph - N/A   Clear
6:15 AM 19.4 °F 10.4 °F 19.4 °F 100% 29.89 in 10.0 mi SSW 6.9 mph - N/A   Clear
6:35 AM 19.4 °F 10.4 °F 15.8 °F 86% 29.89 in 10.0 mi West 6.9 mph - N/A   Clear
6:55 AM 19.4 °F 14.3 °F 15.8 °F 86% 29.90 in 10.0 mi West 3.5 mph - N/A   Clear
7:15 AM 19.4 °F 8.6 °F 12.2 °F 74% 29.90 in 10.0 mi West 9.2 mph - N/A   Clear
7:35 AM 21.2 °F 10.9 °F 12.2 °F 68% 29.91 in 10.0 mi WSW 9.2 mph - N/A   Clear
7:55 AM 21.2 °F 11.7 °F 12.2 °F 68% 29.91 in 10.0 mi WSW 8.1 mph - N/A   Clear
8:15 AM 21.2 °F 11.7 °F 12.2 °F 68% 29.90 in 10.0 mi SW 8.1 mph - N/A   Clear
8:35 AM 21.2 °F 12.6 °F 12.2 °F 68% 29.91 in 10.0 mi SSW 6.9 mph - N/A   Clear
8:55 AM 21.2 °F 14.9 °F 15.8 °F 80% 29.91 in 10.0 mi South 4.6 mph - N/A   Clear
9:15 AM 23.0 °F 15.8 °F 12.2 °F 63% 29.91 in 10.0 mi SW 5.8 mph - N/A   Clear
9:35 AM 24.8 °F 16.1 °F 19.4 °F 80% 29.91 in 10.0 mi SW 8.1 mph - N/A   Clear
9:55 AM 26.6 °F 14.7 °F 17.6 °F 69% 29.91 in 10.0 mi SW 15.0 mph 19.6 mph N/A   Clear
10:15 AM 26.6 °F 15.2 °F 24.8 °F 93% 29.90 in 10.0 mi WSW 13.8 mph 20.7 mph 0.01 in   Clear
10:35 AM 28.4 °F 17.5 °F 19.4 °F 69% 29.89 in 10.0 mi WSW 13.8 mph - 0.01 in   Clear
10:55 AM 28.4 °F 16.6 °F 26.6 °F 93% 29.90 in 10.0 mi WSW 16.1 mph 21.9 mph 0.02 in   Clear
11:15 AM 30.2 °F 20.8 °F 21.2 °F 69% 29.89 in 10.0 mi West 11.5 mph 19.6 mph N/A   Clear
11:35 AM 30.2 °F 18.9 °F 24.8 °F 80% 29.88 in 10.0 mi West 16.1 mph 26.5 mph 0.01 in   Clear
12:15 PM 32.0 °F 23.0 °F 21.2 °F 64% 29.87 in 5.0 mi West 11.5 mph 35.7 mph N/A   Partly Cloudy
12:35 PM 32.0 °F 23.0 °F 30.2 °F 93% 29.86 in 9.0 mi WNW 11.5 mph 26.5 mph N/A   Scattered Clouds
12:55 PM 30.2 °F 19.3 °F 24.8 °F 80% 29.85 in 10.0 mi WNW 15.0 mph 25.3 mph N/A   Scattered Clouds
1:15 PM 32.0 °F 23.6 °F 19.4 °F 60% 29.84 in 10.0 mi West 10.4 mph 19.6 mph N/A   Clear
1:35 PM 33.8 °F 23.2 °F 30.2 °F 87% 29.84 in 10.0 mi West 17.3 mph 24.2 mph N/A   Scattered Clouds
1:55 PM 30.2 °F 18.1 °F 24.8 °F 80% 29.84 in 10.0 mi West 18.4 mph 21.9 mph N/A   Partly Cloudy
2:15 PM 30.2 °F 19.8 °F 17.6 °F 60% 29.83 in 10.0 mi West 13.8 mph - N/A   Partly Cloudy
2:35 PM 30.2 °F 19.3 °F 26.6 °F 86% 29.83 in 10.0 mi West 15.0 mph 20.7 mph N/A   Mostly Cloudy
2:55 PM 32.0 °F 22.1 °F 30.2 °F 93% 29.83 in 10.0 mi West 13.8 mph 17.3 mph N/A   Mostly Cloudy
3:15 PM 30.2 °F 21.9 °F 21.2 °F 69% 29.83 in 10.0 mi WSW 9.2 mph - N/A   Mostly Cloudy
3:35 PM 32.0 °F 23.0 °F 19.4 °F 60% 29.83 in 10.0 mi WSW 11.5 mph - N/A   Overcast
3:55 PM 30.2 °F 20.8 °F 30.2 °F 100% 29.84 in 10.0 mi WSW 11.5 mph 19.6 mph N/A   Overcast
4:15 PM 30.2 °F 20.8 °F 26.6 °F 86% 29.83 in 10.0 mi WSW 11.5 mph - N/A   Overcast
4:35 PM 30.2 °F 21.9 °F 17.6 °F 60% 29.82 in 10.0 mi WSW 9.2 mph - N/A   Overcast
4:55 PM 30.2 °F 21.9 °F 26.6 °F 86% 29.82 in 10.0 mi SW 9.2 mph - N/A   Overcast
5:15 PM 30.2 °F 21.3 °F 30.2 °F 100% 29.82 in 10.0 mi WSW 10.4 mph - N/A   Overcast
5:35 PM 30.2 °F 21.9 °F 17.6 °F 60% 29.81 in 10.0 mi WSW 9.2 mph - N/A   Mostly Cloudy
5:55 PM 30.2 °F 21.9 °F 21.2 °F 69% 29.80 in 10.0 mi SW 9.2 mph - N/A   Scattered Clouds
6:15 PM 28.4 °F 18.5 °F - N/A% 29.79 in 10.0 mi WSW 11.5 mph - N/A   Partly Cloudy
6:35 PM 28.4 °F 19.7 °F 21.2 °F 74% 29.79 in 10.0 mi SW 9.2 mph - N/A   Clear
7:15 PM 28.4 °F 19.1 °F 28.4 °F 100% 29.79 in 10.0 mi SW 10.4 mph - N/A   Mostly Cloudy
7:35 PM 30.2 °F 23.4 °F 21.2 °F 69% 29.79 in 10.0 mi SW 6.9 mph - N/A   Overcast
8:15 PM 30.2 °F 25.4 °F 30.2 °F 100% 29.78 in 10.0 mi SSW 4.6 mph - N/A   Overcast
8:35 PM 28.4 °F - 17.6 °F 64% 29.78 in 10.0 mi Calm Calm - N/A   Scattered Clouds
8:55 PM 28.4 °F 23.3 °F 28.4 °F 100% 29.76 in 10.0 mi South 4.6 mph - N/A   Mostly Cloudy
9:15 PM 28.4 °F 24.6 °F 21.2 °F 74% 29.74 in 10.0 mi SSW 3.5 mph - N/A   Partly Cloudy
9:35 PM 28.4 °F 22.2 °F 17.6 °F 64% 29.74 in 10.0 mi SSW 5.8 mph - N/A   Clear
9:55 PM 28.4 °F 24.6 °F 28.4 °F 100% 29.74 in 10.0 mi SW 3.5 mph - N/A   Clear
10:15 PM 28.4 °F 22.2 °F 19.4 °F 69% 29.74 in 10.0 mi SW 5.8 mph - N/A   Clear
10:35 PM 28.4 °F 24.6 °F 21.2 °F 74% 29.73 in 10.0 mi South 3.5 mph - N/A   Clear
11:15 PM 28.4 °F 24.6 °F 15.8 °F 59% 29.71 in 10.0 mi SSW 3.5 mph - N/A   Overcast
11:35 PM 28.4 °F 22.2 °F 28.4 °F 100% 29.71 in 10.0 mi SW 5.8 mph - N/A   Overcast
11:55 PM 28.4 °F 21.2 °F 26.6 °F 93% 29.70 in 10.0 mi SW 6.9 mph - N/A   Overcast